Fairmont, MN

4:29 AM CST on February 21, 2017 (GMT -0600)
Fairmont Municipal

Weather History for KFRM - May, 2013

Change the Weather History Date:

Tuesday, May 28, 2013

  Actual Average Record
Temperature  
Mean Temperature 60 °F -  
Max Temperature 66 °F 74 °F 93 °F (2006)
Min Temperature 55 °F 54 °F 35 °F (1965)
Degree Days  
Heating Degree Days 4    
Growing Degree Days 10 (Base 50)    
Moisture  
Dew Point 55 °F    
Average Humidity 85    
Maximum Humidity 94    
Minimum Humidity 68    
Precipitation  
Precipitation 0.01 in - - ()
Sea Level Pressure  
Sea Level Pressure 29.74 in    
Wind  
Wind Speed 6 mph (NE)    
Max Wind Speed 13 mph    
Max Gust Speed -    
Visibility 6 miles    
Events      
Averages and records for this station are not official NWS values.
T = Trace of Precipitation, MM = Missing Value Source: NWS Daily Summary

Daily Weather History Graph

Daily Weather History Graph

Search for Another Location

Airport or City:

Trip Planner

Search our weather history database for the weather conditions in past years. The results will help you decide how hot, cold, wet, or windy it might be!

Date:

Astronomy

May. 28, 2013 Rise Set
Actual Time 5:41 AM CDT 8:49 PM CDT
Civil Twilight 5:06 AM CDT 9:23 PM CDT
Nautical Twilight 4:22 AM CDT 10:08 PM CDT
Astronomical Twilight 3:28 AM CDT 11:02 PM CDT
Moon No Moon Rise 9:33 AM CDT (5/28)
Length of Visible Light 16h 17m
Length of Day
15h 08m
Waning Gibbous, 82% of the Moon is Illuminated
May 28
Waning Gibbous
May 31
Last Quarter
Jun 8
New
Jun 16
First Quarter
Jun 23
Full

Hourly Weather History & Observations

Time (CDT) Temp. Dew Point Humidity Pressure Visibility Wind Dir Wind Speed Gust Speed Precip Events Conditions
12:15 AM 57.2 °F 53.6 °F 88% 29.79 in 5.0 mi East 5.8 mph - N/A   Overcast
1:15 AM 55.4 °F 53.6 °F 94% 29.74 in 3.0 mi ENE 10.4 mph - N/A   Overcast
2:15 AM 55.4 °F 53.6 °F 94% 29.74 in 1.0 mi East 6.9 mph - N/A   Overcast
2:55 AM 55.4 °F 53.6 °F 94% 29.73 in 0.2 mi East 5.8 mph - N/A   Overcast
3:15 AM 57.2 °F 53.6 °F 88% 29.73 in 0.2 mi East 8.1 mph - N/A   Overcast
3:35 AM 55.4 °F 53.6 °F 94% 29.72 in 0.5 mi East 6.9 mph - N/A   Overcast
4:15 AM 55.4 °F 53.6 °F 94% 29.71 in 0.5 mi ENE 8.1 mph - N/A   Overcast
4:55 AM 55.4 °F 53.6 °F 94% 29.72 in 0.2 mi East 6.9 mph - N/A   Overcast
5:35 AM 55.4 °F 53.6 °F 94% 29.71 in 0.2 mi NE 5.8 mph - N/A   Overcast
6:15 AM 55.4 °F 53.6 °F 94% 29.70 in 0.2 mi NE 5.8 mph - N/A   Overcast
7:55 AM 55.4 °F 53.6 °F 94% 29.70 in 0.2 mi NE 4.6 mph - N/A   Overcast
8:15 AM 55.4 °F 53.6 °F 94% 29.70 in 0.5 mi East 8.1 mph - N/A   Overcast
8:35 AM 55.4 °F 53.6 °F 94% 29.69 in 0.5 mi ENE 6.9 mph - N/A   Overcast
8:55 AM 55.4 °F 53.6 °F 94% 29.70 in 0.2 mi ENE 6.9 mph - 0.01 in   Overcast
9:15 AM 57.2 °F 53.6 °F 88% 29.71 in 1.8 mi ENE 5.8 mph - N/A   Overcast
10:15 AM 57.2 °F 55.4 °F 94% 29.71 in 6.0 mi ESE 5.8 mph - N/A   Overcast
11:15 AM 59.0 °F 55.4 °F 88% 29.71 in 3.0 mi ESE 5.8 mph - N/A   Overcast
11:35 AM 59.0 °F 55.4 °F 88% 29.72 in 2.0 mi South 3.5 mph - N/A   Overcast
11:55 AM 59.0 °F 55.4 °F 88% 29.72 in 3.0 mi SSW 3.5 mph - N/A   Overcast
12:15 PM 60.8 °F 57.2 °F 88% 29.73 in 3.0 mi WSW 5.8 mph - N/A   Overcast
12:35 PM 60.8 °F 57.2 °F 88% 29.72 in 3.0 mi WNW 5.8 mph - N/A   Overcast
12:55 PM 60.8 °F 57.2 °F 88% 29.73 in 3.0 mi West 8.1 mph - N/A   Overcast
1:15 PM 60.8 °F 57.2 °F 88% 29.73 in 5.0 mi West 9.2 mph - N/A   Overcast
1:35 PM 62.6 °F 57.2 °F 82% 29.74 in 6.0 mi WNW 10.4 mph - N/A   Overcast
1:55 PM 62.6 °F 57.2 °F 82% 29.74 in 8.0 mi WNW 12.7 mph - N/A   Overcast
2:15 PM 62.6 °F 55.4 °F 77% 29.73 in 8.0 mi NW 6.9 mph - N/A   Overcast
2:35 PM 60.8 °F 55.4 °F 82% 29.75 in 8.0 mi NNW 11.5 mph - N/A   Overcast
2:55 PM 62.6 °F 55.4 °F 77% 29.74 in 10.0 mi NNW 10.4 mph - N/A   Overcast
3:15 PM 62.6 °F 55.4 °F 77% 29.75 in 10.0 mi NNW 11.5 mph - N/A   Overcast
3:35 PM 62.6 °F 57.2 °F 82% 29.75 in 10.0 mi North 10.4 mph - N/A   Overcast
3:55 PM 62.6 °F 55.4 °F 77% 29.75 in 10.0 mi North 9.2 mph - N/A   Overcast
4:15 PM 62.6 °F 55.4 °F 77% 29.76 in 10.0 mi NE 4.6 mph - N/A   Overcast
4:35 PM 62.6 °F 55.4 °F 77% 29.76 in 10.0 mi North 4.6 mph - N/A   Overcast
4:55 PM 62.6 °F 55.4 °F 77% 29.76 in 10.0 mi NNW 3.5 mph - N/A   Overcast
5:15 PM 62.6 °F 55.4 °F 77% 29.76 in 10.0 mi WNW 4.6 mph - N/A   Overcast
5:35 PM 62.6 °F 55.4 °F 77% 29.76 in 10.0 mi NW 4.6 mph - N/A   Overcast
5:55 PM 64.4 °F 57.2 °F 77% 29.75 in 10.0 mi North 3.5 mph - N/A   Overcast
6:15 PM 66.2 °F 57.2 °F 73% 29.75 in 10.0 mi North 4.6 mph - N/A   Mostly Cloudy
6:35 PM 66.2 °F 57.2 °F 73% 29.75 in 10.0 mi North 4.6 mph - N/A   Mostly Cloudy
6:55 PM 64.4 °F 57.2 °F 77% 29.75 in 10.0 mi North 3.5 mph - N/A   Overcast
7:15 PM 66.2 °F 57.2 °F 73% 29.74 in 10.0 mi North 6.9 mph - N/A   Mostly Cloudy
7:35 PM 66.2 °F 55.4 °F 68% 29.75 in 10.0 mi Calm Calm - N/A   Mostly Cloudy
7:55 PM 64.4 °F 55.4 °F 73% 29.75 in 10.0 mi Calm Calm - N/A   Overcast
8:15 PM 64.4 °F 57.2 °F 77% 29.73 in 10.0 mi ENE 5.8 mph - N/A   Overcast
8:35 PM 62.6 °F 57.2 °F 82% 29.73 in 10.0 mi East 5.8 mph - N/A   Partly Cloudy
8:55 PM 62.6 °F 57.2 °F 82% 29.72 in 10.0 mi East 5.8 mph - N/A   Clear
9:15 PM 60.8 °F 55.4 °F 82% 29.71 in 10.0 mi NE 8.1 mph - N/A   Clear
9:35 PM 59.0 °F 55.4 °F 88% 29.73 in 10.0 mi East 4.6 mph - N/A   Clear
9:55 PM 57.2 °F 55.4 °F 94% 29.77 in 7.0 mi SSE 4.6 mph - N/A   Clear
10:15 PM 57.2 °F 53.6 °F 88% 29.79 in 10.0 mi SSE 8.1 mph - N/A   Clear
10:35 PM 57.2 °F 53.6 °F 88% 29.80 in 9.0 mi Calm Calm - N/A   Clear
10:55 PM 57.2 °F 53.6 °F 88% 29.77 in 7.0 mi ESE 6.9 mph - N/A   Clear
11:15 PM 57.2 °F 53.6 °F 88% 29.78 in 7.0 mi East 3.5 mph - N/A   Clear
11:35 PM 57.2 °F 53.6 °F 88% 29.78 in 5.0 mi SSE 3.5 mph - N/A   Clear
11:55 PM 55.4 °F 53.6 °F 94% 29.78 in 1.2 mi Calm Calm - N/A   Clear